Miscellaneous Local Product
Issued by NWS Hastings, NE

Home | Current Version | Previous Version | Text Only | Print | Product List | Glossary On
Versions: 1 2 3 4 5 6 7 8 9 10 11 12 13 14 15 16 17 18 19 20 21 22 23 24 25 26 27 28 29 30 31 32 33 34 35 36 37 38 39 40 41 42 43 44 45 46 47 48 49 50
000
AXUS43 KGID 290702
MISGRI

GID CWA HOURLY WEATHER ROUNDUP
NATIONAL WEATHER SERVICE HASTINGS NE
200 AM CDT FRI AUG 29 2014

NOTE: "FAIR" INDICATES FEW OR NO CLOUDS BELOW 12,000 FEET WITH NO
SIGNIFICANT WEATHER AND/OR OBSTRUCTIONS TO VISIBILITY.

...SOUTH CENTRAL NEBRASKA...

CITY           SKY/WX    TMP DP  RH WIND       PRES   REMARKS
GRAND ISLAND   CLOUDY    70  67  90 CALM      29.83F
HASTINGS       CLOUDY    67  62  84 CALM      29.84F
KEARNEY        CLOUDY    66  63  88 NW10      29.85F
ORD            MOCLDY    63  61  93 W3        29.84S
YORK           MOCLDY    68 N/A N/A CALM      29.83F
AURORA         CLOUDY    68  67  96 CALM      29.82F
LEXINGTON      MOCLDY    64  62  93 NW6       29.88F
HOLDREGE       CLOUDY    65  63  92 CALM      29.86S
HEBRON         MOCLDY    69  64  83 SE3       29.83S

...NEBRASKA PANHANDLE...

CITY           SKY/WX    TMP DP  RH WIND       PRES   REMARKS
CHADRON        CLEAR     55  53  93 W8        29.94F
ALLIANCE       CLEAR     52  50  93 W8        29.98F
SCOTTSBLUFF    CLEAR     52  51  97 N3        30.01F
SIDNEY         PTCLDY    56  50  80 W8        30.03F

...WESTERN AND NORTH CENTRAL NEBRASKA...

CITY           SKY/WX    TMP DP  RH WIND       PRES   REMARKS
VALENTINE      PTCLDY    63  62  97 SW5       29.89S
AINSWORTH      PTCLDY    59  58  97 W3        29.89S
ONEILL         MOCLDY    64  63  96 W7        29.85S
BROKEN BOW     MOCLDY    64  61  90 NW6       29.87F
IMPERIAL       CLEAR     59  54  83 NW9       29.96S
NORTH PLATTE   PTCLDY    59  56  89 NW7       29.93S
MCCOOK         PTCLDY    61  57  87 NW6       29.92R

...EASTERN NEBRASKA...

CITY           SKY/WX    TMP DP  RH WIND       PRES   REMARKS
NORFOLK        CLOUDY    70  64  81 SE10      29.81S
SO SIOUX CITY  MOCLDY    73  71  93 SE8       29.80S FOG
TEKAMAH        CLOUDY    72  69  90 SE6       29.81F
COLUMBUS       CLOUDY    70  66  88 S3        29.82F
ALBION         CLOUDY    65  64  94 NW6       29.82S
OMAHA EPPLEY   CLOUDY    73  68  84 SE10      29.82F
OFFUTT AFB     CLOUDY    74  74 100 SE5       29.83S
MILLARD        CLOUDY    73  71  92 SE5       29.83S
LINCOLN        MOCLDY    74  68  81 S8        29.83F
NEBRASKA CITY  MOCLDY    70  70 100 S3        29.84F
BEATRICE       MOCLDY    72  68  88 SE7       29.84S
FALLS CITY     CLOUDY    74  72  93 SE6       29.83F

...NORTHERN KANSAS...

CITY           SKY/WX    TMP DP  RH WIND       PRES   REMARKS
GOODLAND       CLEAR     58  55  90 W9        29.99F
HILL CITY      CLOUDY    66  61  84 SW6       29.91F
NORTON         SUNNY     64  55  72 W14       29.87F
SMITH CENTER   CLEAR     66  64  94 S3        29.84F
BELOIT         CLEAR     72  64  78 S8        29.82F
HAYS           CLOUDY    66  57  72 SE13G18   29.88F
RUSSELL        CLOUDY    68  57  68 SW10      29.85F
CONCORDIA      CLOUDY    71  68  90 SW12      29.84F
SALINA         CLOUDY    74  62  66 SW15      29.85S
TOPEKA         PTCLDY    77  64  64 S3        29.85F



USA.gov is the U.S. government's official web portal to all federal, state and local government web resources and services.